Regional Weather Roundup
Issued by NWS Cleveland, OH

Home | Current Version | Previous Version | Graphics & Text | Print | Product List | Glossary On
Versions: 1 2 3 4 5 6 7 8 9 10 11 12 13 14 15 16 17 18 19 20 21 22 23 24 25 26 27 28 29 30 31 32 33 34 35 36 37 38 39 40 41 42 43 44 45 46 47 48 49 50
000
ASUS41 KCLE 190810
RWRCLE
OHIO REGIONAL WEATHER ROUNDUP
NATIONAL WEATHER SERVICE WILMINGTON, OH
400 AM EDT SAT APR 19 2014

NOTE: "FAIR" INDICATES FEW OR NO CLOUDS BELOW 12,000 FEET WITH NO
SIGNIFICANT WEATHER AND/OR OBSTRUCTIONS TO VISIBILITY.

OHZ001>008-015>018-024>027-034-035-043-044-190900-
   NORTHWEST OHIO

CITY           SKY/WX    TMP DP  RH WIND       PRES   REMARKS
DEFIANCE       CLEAR     42  36  79 NE7       30.34R
FINDLAY        CLEAR     40  36  86 NE18      30.32R
TOLEDO EXPRESS CLEAR     38  31  76 NE10G20   30.35R
TOLEDO METCALF CLEAR     39  33  79 NE12      30.37R
LIMA           CLEAR     45  40  82 NE13      30.29R
$$

OHZ009>014-019>023-028>033-038-089-190900-
   NORTHEAST OHIO

CITY           SKY/WX    TMP DP  RH WIND       PRES   REMARKS
CLE-HOPKINS    PTCLDY    40  35  83 N12       30.36R
CLE-LAKEFRONT  CLEAR     41  36  82 NE17G24   30.33R
CUY CO. ARPT   NOT AVBL
LORAIN-ELYRIA  CLEAR     40  33  76 NE13      30.34R
ASHTABULA      CLEAR     39  32  76 N8        30.33R
AKRON-CANTON   PTCLDY    44  41  89 NE9       30.29R
WOOSTER        CLEAR     44  38  79 NE8       30.29S
MANSFIELD      PTCLDY    43  39  86 N12       30.29R
YOUNGSTOWN     PTCLDY    42  39  89 N7        30.29R
$$

OHZ042-051>053-060>062-070>072-077>081-190900-
  SOUTHWEST OHIO

CITY           SKY/WX    TMP DP  RH WIND       PRES   REMARKS
CINC-COVINGTON MOCLDY    53  37  54 N8        30.23F
CINC-LUNKEN    CLEAR     41  40  96 CALM      30.25S
HAMILTON       PTCLDY    49  38  65 CALM      30.26S
DAYTON         PTCLDY    44  36  73 N6        30.26S
WRIGHT-PAT AFB PTCLDY    47  38  70 NW2       30.25S
DAYTON GENERAL PTCLDY    48  37  65 N7        30.24S
WILMINGTON     CLEAR     48  38  68 N7        30.24S
$$

OHZ036-037-039>041-045>050-054>059-063>069-073>076-082>088-190900-
  CENTRAL AND SOUTHEAST OHIO

CITY           SKY/WX    TMP DP  RH WIND       PRES   REMARKS
COLUMBUS       PTCLDY    51  40  65 NE7       30.25R
OSU AIRPORT    PTCLDY    47  41  80 N7        30.25R
BOLTON FIELD   PTCLDY    47  42  81 N8        30.25R
RICKENBACK AFB PTCLDY    47  39  73 N7        30.24R
NEWARK         PTCLDY    49  39  68 N5        30.25R
MARION         PTCLDY    43  39  86 NE14      30.28S FOG
LANCASTER      PTCLDY    42  38  85 CALM      30.24R
ZANESVILLE     PTCLDY    48  38  68 N5        30.25R
NEW PHILLY     PTCLDY    45  38  76 CALM      30.29R
$$



USA.gov is the U.S. government's official web portal to all federal, state and local government web resources and services.